LGL188 EKCH-ELLX

Flight info

Callsign LGL188
Flight time 1h 15m
Altitude 36000
Route NEXEN2A NEXEN T503 MICOS DCT WIMCI DCT ABAMI Z717 NEREL T855 LNO LNO3D
Aircraft A20N/M-SDE2E3FGHIRWXY/LB1

Departure

Time 2026-04-30 19:36
Airport Copenhagen Kastrup Airport (EKCH)

Arrival

Time 2026-04-30 20:51
Airport Luxembourg-Findel International Airport (ELLX)
Time Latitude Longitude Altitude Speed Heading
2026-04-30 19:05 55.62573 12.65024 23 ft 0 kts 269°
2026-04-30 19:19 55.62573 12.65038 27 ft 1 kts 269°
2026-04-30 19:20 55.62573 12.65051 27 ft 1 kts 269°
2026-04-30 19:20 55.62574 12.65065 25 ft 1 kts 269°
2026-04-30 19:20 55.62574 12.65093 27 ft 1 kts 269°
2026-04-30 19:21 55.62574 12.65106 27 ft 1 kts 257°
2026-04-30 19:21 55.62580 12.65131 28 ft 1 kts 228°
2026-04-30 19:22 55.62592 12.65149 29 ft 1 kts 201°
2026-04-30 19:22 55.62603 12.65154 23 ft 0 kts 183°
2026-04-30 19:25 55.62548 12.65182 26 ft 9 kts 166°
2026-04-30 19:26 55.62469 12.65189 25 ft 7 kts 170°
2026-04-30 19:26 55.62421 12.65202 24 ft 9 kts 177°
2026-04-30 19:26 55.62348 12.65203 23 ft 9 kts 179°
2026-04-30 19:27 55.62233 12.65195 23 ft 11 kts 192°
2026-04-30 19:27 55.62120 12.65076 25 ft 0 kts 213°
2026-04-30 19:28 55.62085 12.65036 26 ft 8 kts 213°
2026-04-30 19:29 55.61954 12.64884 24 ft 11 kts 213°
2026-04-30 19:29 55.61878 12.64798 26 ft 14 kts 213°
2026-04-30 19:30 55.61576 12.64449 26 ft 20 kts 212°
2026-04-30 19:30 55.61353 12.64194 24 ft 20 kts 213°
2026-04-30 19:31 55.61102 12.63905 25 ft 23 kts 213°
2026-04-30 19:31 55.60962 12.63745 25 ft 24 kts 213°
2026-04-30 19:31 55.60765 12.63519 24 ft 18 kts 213°
2026-04-30 19:32 55.60660 12.63395 25 ft 16 kts 218°
2026-04-30 19:32 55.60576 12.63269 26 ft 16 kts 221°
2026-04-30 19:32 55.60501 12.63152 23 ft 12 kts 221°
2026-04-30 19:32 55.60423 12.63129 25 ft 10 kts 147°
2026-04-30 19:33 55.60404 12.63162 24 ft 0 kts 133°
2026-04-30 19:34 55.60401 12.63169 26 ft 4 kts 133°
2026-04-30 19:34 55.60361 12.63250 24 ft 11 kts 128°
2026-04-30 19:34 55.60373 12.63398 27 ft 0 kts 39°
2026-04-30 19:35 55.60389 12.63421 25 ft 21 kts 40°
2026-04-30 19:35 55.60689 12.63883 29 ft 91 kts 41°
2026-04-30 19:35 55.61305 12.64834 27 ft 142 kts 40°
2026-04-30 19:35 55.62102 12.66037 362 ft 157 kts 38°
2026-04-30 19:36 55.62963 12.67319 895 ft 165 kts 37°
2026-04-30 19:36 55.63850 12.68656 1527 ft 169 kts 37°
2026-04-30 19:36 55.65708 12.71501 2564 ft 191 kts 38°
2026-04-30 19:37 55.66753 12.73180 2973 ft 215 kts 40°
2026-04-30 19:37 55.67942 12.75000 3538 ft 237 kts 39°
2026-04-30 19:37 55.69250 12.76992 4184 ft 255 kts 45°
2026-04-30 19:37 55.70173 12.79681 5186 ft 259 kts 71°
2026-04-30 19:38 55.70330 12.82858 6226 ft 264 kts 96°
2026-04-30 19:38 55.69647 12.85908 7180 ft 274 kts 123°
2026-04-30 19:38 55.68206 12.88182 8067 ft 285 kts 149°
2026-04-30 19:38 55.66346 12.89531 8973 ft 292 kts 158°
2026-04-30 19:39 55.64399 12.90704 9906 ft 297 kts 159°
2026-04-30 19:39 55.62399 12.91758 10742 ft 306 kts 168°
2026-04-30 19:39 55.60196 12.91691 11128 ft 332 kts 192°
2026-04-30 19:39 55.58005 12.90025 11420 ft 356 kts 215°
2026-04-30 19:40 55.56180 12.87002 12065 ft 364 kts 230°
2026-04-30 19:40 55.54573 12.83584 12830 ft 370 kts 232°
2026-04-30 19:40 55.52912 12.80063 13593 ft 376 kts 230°
2026-04-30 19:40 55.51185 12.76540 14340 ft 382 kts 232°
2026-04-30 19:41 55.49515 12.72876 15079 ft 385 kts 232°
2026-04-30 19:41 55.47801 12.69217 15835 ft 388 kts 231°
2026-04-30 19:41 55.46054 12.65545 16565 ft 392 kts 231°
2026-04-30 19:41 55.44288 12.61857 17286 ft 396 kts 231°
2026-04-30 19:42 55.42502 12.58135 18004 ft 399 kts 231°
2026-04-30 19:42 55.40701 12.54388 18708 ft 403 kts 231°
2026-04-30 19:42 55.38883 12.50604 19257 ft 407 kts 231°
2026-04-30 19:42 55.37048 12.46789 19882 ft 409 kts 231°
2026-04-30 19:43 55.35205 12.42962 20524 ft 412 kts 231°
2026-04-30 19:43 55.33344 12.39103 21143 ft 415 kts 231°
2026-04-30 19:43 55.31466 12.35216 21742 ft 419 kts 231°
2026-04-30 19:44 55.27669 12.27373 22953 ft 425 kts 231°
2026-04-30 19:44 55.25750 12.23418 23547 ft 428 kts 231°
2026-04-30 19:44 55.23833 12.19474 24099 ft 431 kts 231°
2026-04-30 19:44 55.21855 12.15421 24605 ft 434 kts 230°
2026-04-30 19:45 55.19717 12.11660 25116 ft 437 kts 223°
2026-04-30 19:45 55.17344 12.08409 25595 ft 441 kts 217°
2026-04-30 19:45 55.14852 12.05254 26067 ft 443 kts 217°
2026-04-30 19:45 55.12348 12.02072 26520 ft 446 kts 217°
2026-04-30 19:46 55.09834 11.98872 26993 ft 448 kts 217°
2026-04-30 19:46 55.07312 11.95662 27435 ft 451 kts 217°
2026-04-30 19:46 55.04772 11.92430 27866 ft 453 kts 217°
2026-04-30 19:46 55.02217 11.89185 28288 ft 456 kts 218°
2026-04-30 19:47 54.99648 11.85927 28697 ft 458 kts 218°
2026-04-30 19:47 54.97934 11.83757 28962 ft 459 kts 218°
2026-04-30 19:47 54.94464 11.79370 29471 ft 462 kts 218°
2026-04-30 19:47 54.91853 11.76075 29846 ft 465 kts 218°
2026-04-30 19:48 54.89226 11.72767 30205 ft 467 kts 218°
2026-04-30 19:48 54.86587 11.69447 30556 ft 470 kts 218°
2026-04-30 19:48 54.83932 11.66114 30886 ft 471 kts 218°
2026-04-30 19:48 54.81274 11.62782 31226 ft 473 kts 218°
2026-04-30 19:49 54.78601 11.59436 31558 ft 474 kts 217°
2026-04-30 19:49 54.73258 11.52767 32409 ft 472 kts 217°
2026-04-30 19:49 54.70604 11.49462 32853 ft 470 kts 217°
2026-04-30 19:50 54.67948 11.46161 33275 ft 469 kts 217°
2026-04-30 19:50 54.65300 11.42875 33701 ft 467 kts 217°
2026-04-30 19:50 54.62698 11.39650 34103 ft 466 kts 217°
2026-04-30 19:50 54.60069 11.36398 34489 ft 464 kts 217°
2026-04-30 19:51 54.57443 11.33154 34823 ft 463 kts 217°
2026-04-30 19:51 54.54817 11.29918 35130 ft 462 kts 217°
2026-04-30 19:51 54.52194 11.26713 35422 ft 462 kts 216°
2026-04-30 19:51 54.49573 11.23527 35705 ft 461 kts 216°
2026-04-30 19:52 54.46949 11.20344 35981 ft 461 kts 216°
2026-04-30 19:52 54.44323 11.17161 36250 ft 460 kts 216°
2026-04-30 19:52 54.41735 11.14026 36402 ft 460 kts 216°
2026-04-30 19:52 54.39132 11.10878 36426 ft 459 kts 216°
2026-04-30 19:53 54.33910 11.04576 36438 ft 458 kts 216°
2026-04-30 19:53 54.28713 10.98257 36437 ft 458 kts 218°
2026-04-30 19:54 54.23713 10.91513 36436 ft 458 kts 220°
2026-04-30 19:54 54.18726 10.84739 36435 ft 458 kts 219°
2026-04-30 19:55 54.13699 10.78022 36442 ft 458 kts 219°
2026-04-30 19:55 54.08673 10.71355 36440 ft 458 kts 219°
2026-04-30 19:56 54.03628 10.64685 36451 ft 459 kts 219°
2026-04-30 19:56 53.98583 10.58038 36450 ft 459 kts 219°
2026-04-30 19:57 53.93535 10.51405 36452 ft 459 kts 219°
2026-04-30 19:57 53.88522 10.44839 36452 ft 459 kts 219°
2026-04-30 19:58 53.83460 10.38229 36450 ft 459 kts 219°
2026-04-30 19:58 53.78398 10.31639 36447 ft 459 kts 219°
2026-04-30 19:59 53.73334 10.25070 36448 ft 459 kts 219°
2026-04-30 20:00 53.65714 10.15221 36446 ft 459 kts 218°
2026-04-30 20:00 53.60640 10.08689 36450 ft 459 kts 218°
2026-04-30 20:01 53.53043 9.98945 36453 ft 460 kts 218°
2026-04-30 20:01 53.47942 9.92428 36456 ft 460 kts 218°
2026-04-30 20:02 53.40321 9.82729 36452 ft 460 kts 218°
2026-04-30 20:03 53.32654 9.73017 36445 ft 460 kts 218°
2026-04-30 20:03 53.27536 9.66559 36436 ft 460 kts 218°
2026-04-30 20:04 53.22421 9.60124 36434 ft 460 kts 218°
2026-04-30 20:05 53.14734 9.50492 36430 ft 460 kts 218°
2026-04-30 20:05 53.07055 9.40911 36429 ft 460 kts 218°
2026-04-30 20:06 53.01963 9.34584 36427 ft 460 kts 217°
2026-04-30 20:06 52.96835 9.28231 36428 ft 459 kts 217°
2026-04-30 20:07 52.91709 9.21899 36423 ft 459 kts 217°
2026-04-30 20:08 52.84883 9.13497 36420 ft 459 kts 217°
2026-04-30 20:08 52.79756 9.07209 36416 ft 459 kts 217°
2026-04-30 20:09 52.74624 9.00932 36412 ft 458 kts 217°
2026-04-30 20:09 52.66960 8.91493 36405 ft 458 kts 219°
2026-04-30 20:10 52.59625 8.81389 36400 ft 458 kts 220°
2026-04-30 20:11 52.52287 8.71404 36404 ft 458 kts 220°
2026-04-30 20:11 52.47362 8.64770 36400 ft 458 kts 220°
2026-04-30 20:12 52.39966 8.54848 36406 ft 458 kts 219°
2026-04-30 20:13 52.35026 8.48243 36398 ft 458 kts 219°
2026-04-30 20:13 52.30070 8.41638 36399 ft 458 kts 219°
2026-04-30 20:14 52.26519 8.36916 36400 ft 458 kts 219°
2026-04-30 20:14 52.21563 8.30345 36400 ft 458 kts 219°
2026-04-30 20:15 52.16610 8.23796 36404 ft 458 kts 219°
2026-04-30 20:15 52.11652 8.17260 36399 ft 458 kts 219°
2026-04-30 20:16 52.06697 8.10747 36407 ft 458 kts 219°
2026-04-30 20:16 52.01772 8.04290 36396 ft 458 kts 219°
2026-04-30 20:17 51.96805 7.97800 36396 ft 458 kts 219°
2026-04-30 20:17 51.91848 7.91342 36391 ft 458 kts 219°
2026-04-30 20:18 51.86885 7.84895 36389 ft 457 kts 218°
2026-04-30 20:18 51.81912 7.78454 36381 ft 457 kts 218°
2026-04-30 20:19 51.76944 7.72037 36374 ft 457 kts 218°
2026-04-30 20:19 51.71965 7.65625 36370 ft 457 kts 218°
2026-04-30 20:20 51.66985 7.59231 36371 ft 458 kts 218°
2026-04-30 20:20 51.61999 7.52847 36367 ft 458 kts 218°
2026-04-30 20:21 51.57006 7.46473 36372 ft 458 kts 218°
2026-04-30 20:21 51.52012 7.40116 36373 ft 458 kts 218°
2026-04-30 20:22 51.47010 7.33766 36371 ft 458 kts 218°
2026-04-30 20:22 51.42248 7.27080 36369 ft 458 kts 227°
2026-04-30 20:23 51.38292 7.19075 36356 ft 459 kts 233°
2026-04-30 20:23 51.34488 7.10853 36353 ft 459 kts 233°
2026-04-30 20:24 51.30668 7.02672 36354 ft 458 kts 233°
2026-04-30 20:24 51.26844 6.94522 36354 ft 458 kts 233°
2026-04-30 20:25 51.21150 6.82436 36354 ft 458 kts 232°
2026-04-30 20:26 51.15409 6.70303 36347 ft 457 kts 232°
2026-04-30 20:26 51.09692 6.58285 36105 ft 457 kts 231°
2026-04-30 20:27 51.05357 6.50913 35597 ft 456 kts 224°
2026-04-30 20:27 51.00852 6.43809 35070 ft 457 kts 224°
2026-04-30 20:28 50.96302 6.36635 33554 ft 465 kts 224°
2026-04-30 20:28 50.91697 6.29396 31961 ft 465 kts 224°
2026-04-30 20:29 50.87138 6.22250 30787 ft 457 kts 223°
2026-04-30 20:30 50.80462 6.11825 29055 ft 441 kts 223°
2026-04-30 20:30 50.74084 6.01689 27417 ft 427 kts 227°
2026-04-30 20:31 50.68357 5.91161 25809 ft 416 kts 227°
2026-04-30 20:32 50.62985 5.80681 24223 ft 409 kts 231°
2026-04-30 20:32 50.58632 5.75329 23140 ft 392 kts 198°
2026-04-30 20:33 50.56027 5.74304 22640 ft 382 kts 183°
2026-04-30 20:33 50.50941 5.75498 21658 ft 365 kts 156°
2026-04-30 20:33 50.48581 5.76901 21189 ft 361 kts 157°
2026-04-30 20:34 50.43911 5.79636 20239 ft 355 kts 157°
2026-04-30 20:34 50.39315 5.82317 19300 ft 350 kts 157°
2026-04-30 20:35 50.37027 5.83650 18836 ft 351 kts 157°
2026-04-30 20:35 50.34705 5.85006 18572 ft 359 kts 157°
2026-04-30 20:35 50.30018 5.87733 17475 ft 365 kts 157°
2026-04-30 20:36 50.27626 5.89122 16793 ft 366 kts 157°
2026-04-30 20:36 50.25264 5.90490 16371 ft 360 kts 157°
2026-04-30 20:36 50.20625 5.93172 15400 ft 352 kts 157°
2026-04-30 20:37 50.18339 5.94493 14930 ft 348 kts 157°
2026-04-30 20:37 50.16077 5.95800 14461 ft 345 kts 157°
2026-04-30 20:37 50.13838 5.97092 13984 ft 342 kts 158°
2026-04-30 20:37 50.11622 5.98369 13507 ft 338 kts 158°
2026-04-30 20:38 50.09434 5.99629 13048 ft 334 kts 158°
2026-04-30 20:38 50.07264 6.00877 12608 ft 330 kts 158°
2026-04-30 20:38 50.05118 6.02110 12163 ft 326 kts 158°
2026-04-30 20:39 50.00896 6.04536 11284 ft 320 kts 158°
2026-04-30 20:39 49.98812 6.05732 10853 ft 317 kts 158°
2026-04-30 20:39 49.96763 6.06905 10623 ft 308 kts 158°
2026-04-30 20:40 49.92923 6.09097 10290 ft 287 kts 158°
2026-04-30 20:40 49.91075 6.10152 10135 ft 278 kts 158°
2026-04-30 20:40 49.89247 6.11196 9945 ft 282 kts 158°
2026-04-30 20:41 49.85428 6.12076 9258 ft 280 kts 193°
2026-04-30 20:41 49.83687 6.10786 8861 ft 275 kts 208°
2026-04-30 20:41 49.82045 6.09270 8378 ft 271 kts 207°
2026-04-30 20:41 49.80436 6.07783 7923 ft 267 kts 207°
2026-04-30 20:42 49.78844 6.06319 7441 ft 265 kts 207°
2026-04-30 20:42 49.77259 6.04872 6966 ft 263 kts 206°
2026-04-30 20:42 49.74129 6.02020 6073 ft 260 kts 206°
2026-04-30 20:43 49.72578 6.00612 5765 ft 256 kts 206°
2026-04-30 20:43 49.71039 5.99215 5423 ft 256 kts 206°
2026-04-30 20:43 49.69530 5.97847 5123 ft 254 kts 205°
2026-04-30 20:44 49.66477 5.95079 4421 ft 254 kts 204°
2026-04-30 20:44 49.64956 5.93700 4108 ft 253 kts 204°
2026-04-30 20:44 49.62043 5.91066 3985 ft 229 kts 199°
2026-04-30 20:45 49.59334 5.91044 3855 ft 181 kts 144°
2026-04-30 20:45 49.58317 5.92073 3761 ft 170 kts 141°
2026-04-30 20:45 49.57357 5.93034 3526 ft 163 kts 141°
2026-04-30 20:46 49.54568 5.96022 2989 ft 160 kts 122°
2026-04-30 20:46 49.54211 5.97588 2991 ft 151 kts 95°
2026-04-30 20:47 49.55013 6.00673 2997 ft 162 kts 67°
2026-04-30 20:47 49.55583 6.02155 2994 ft 159 kts 69°
2026-04-30 20:48 49.56610 6.04883 2998 ft 144 kts 70°
2026-04-30 20:48 49.57091 6.06223 2997 ft 143 kts 70°
2026-04-30 20:48 49.57579 6.07543 2911 ft 138 kts 69°
2026-04-30 20:48 49.58034 6.08764 2740 ft 127 kts 70°
2026-04-30 20:49 49.58474 6.09954 2562 ft 128 kts 69°
2026-04-30 20:49 49.58918 6.11146 2390 ft 129 kts 68°
2026-04-30 20:49 49.59359 6.12327 2215 ft 124 kts 66°
2026-04-30 20:50 49.60183 6.14547 1877 ft 132 kts 64°
2026-04-30 20:50 49.60649 6.15778 1683 ft 133 kts 62°
2026-04-30 20:50 49.61107 6.17011 1508 ft 130 kts 62°
2026-04-30 20:50 49.61546 6.18191 1324 ft 124 kts 60°
2026-04-30 20:51 49.61977 6.19357 1236 ft 125 kts 59°
2026-04-30 20:51 49.62549 6.20878 1219 ft 57 kts 62°
2026-04-30 20:51 49.62715 6.21157 1219 ft 32 kts 31°
2026-04-30 20:52 49.62855 6.21283 1219 ft 7 kts 29°
2026-04-30 20:52 49.62857 6.21284 1219 ft 0 kts 29°
2026-04-30 20:53 49.62858 6.21285 1219 ft 2 kts 29°
2026-04-30 20:53 49.62884 6.21308 1219 ft 6 kts 30°
2026-04-30 20:53 49.62932 6.21350 1219 ft 9 kts 31°
2026-04-30 20:54 49.62990 6.21406 1217 ft 5 kts 32°
2026-04-30 20:54 49.63018 6.21452 1217 ft 7 kts 60°
2026-04-30 20:54 49.63039 6.21524 1217 ft 8 kts 64°
2026-04-30 20:55 49.63092 6.21692 1218 ft 10 kts 64°
2026-04-30 20:55 49.63116 6.21767 1218 ft 7 kts 64°
2026-04-30 20:55 49.63140 6.21848 1218 ft 10 kts 65°
2026-04-30 20:56 49.63243 6.21863 1218 ft 8 kts 327°
2026-04-30 20:56 49.63287 6.21819 1218 ft 9 kts 327°
2026-04-30 20:56 49.63363 6.21746 1218 ft 0 kts 332°
2026-04-30 20:57 49.63370 6.21740 1218 ft 1 kts 331°
2026-04-30 20:57 49.63375 6.21737 1218 ft 0 kts 331°